This demonstration page uses our WeatherBlox Daily Observations layout. Learn more.

Left ArrowRight Arrow

30.21309, -93.2044

Hourly Observations for December 2, 2022

Temp ( °F °C ) Dew Point ( °F °C ) Humidity (%) Winds ( mph kmh ) Pressure ( in mb ) Visibility ( mi km ) Precip ( " mm )
12:15 am 00:15 Clear 47 8.4 41 4.8 78 78 E 9 15 30.26 1025 10 16 0.00 0.00
12:35 am 00:35 Clear 47 8.6 41 5.1 79 79 SE 6 9 30.26 1025 10 16 0.00 0.00
12:55 am 00:55 Clear 46 8 41 5 81 81 ESE 7 11 30.26 1025 10 16 0.00 0.00
1:15 am 01:15 Clear 47 8.1 41 5.2 82 82 E 6 9 30.24 1024 10 16 0.00 0.00
1:35 am 01:35 Clear 46 8 41 5.2 82 82 E 3 6 30.24 1024 10 16 0.00 0.00
1:55 am 01:55 Clear 46 8 41 5.2 82 82 E 6 9 30.24 1024 10 16 0.00 0.00
2:15 am 02:15 Clear 47 8.3 41 5.1 80 80 E 6 9 30.23 1024 10 16 0.00 0.00
2:35 am 02:35 Clear 47 8.1 41 5.2 82 82 E 6 9 30.22 1023 10 16 0.00 0.00
2:55 am 02:55 Clear 47 8.5 42 5.7 83 83 E 6 9 30.22 1023 10 16 0.00 0.00
3:15 am 03:15 Partly Cloudy 47 8.5 43 6 84 84 ESE 6 9 30.22 1023 10 16 0.00 0.00
3:35 am 03:35 Partly Cloudy 48 8.8 44 6.5 85 85 E 5 7 30.22 1023 10 16 0.00 0.00
3:55 am 03:55 Clear 49 9.2 45 7 86 86 E 8 13 30.22 1023 10 16 0.00 0.00
4:15 am 04:15 Clear 49 9.5 45 7.2 86 86 E 8 13 30.21 1023 10 16 0.00 0.00
4:35 am 04:35 Clear 49 9.6 45 7.1 84 84 ESE 8 13 30.21 1023 10 16 0.00 0.00
4:55 am 04:55 Clear 49 9.5 45 7.1 85 85 E 7 11 30.21 1023 10 16 0.00 0.00
5:15 am 05:15 Clear 49 9.7 45 7.1 84 84 E 7 11 30.21 1023 10 16 0.00 0.00
5:35 am 05:35 Clear 49 9.5 44 6.9 84 84 E 6 9 30.22 1023 10 16 0.00 0.00
6:00 am 06:00 Clear 48 9 45 7 87 87 ENE 8 13 30.21 1023 10 16 0.00 0.00
6:47 am 06:47 Clear 50 10 45 7 82 82 Calm 30.21 1023 10 16 0.00 0.00
7:47 am 07:47 Partly Cloudy 52 11 46 8 82 82 E 6 9 30.22 1023 10 16 0.00 0.00
8:47 am 08:47 Partly Cloudy 57 14 52 11 82 82 SE 5 7 30.23 1024 10 16 0.00 0.00
10:44 am 10:44 Sunny 70 21 61 16 73 73 S 15 24 30.21 1023 10 16 0.00 0.00
11:45 am 11:45 Sunny 75 24 63 17 65 65 SSE 14 22 30.19 1022 10 16 0.00 0.00
12:46 pm 12:46 Mostly Cloudy 75 24 66 19 74 74 SSE 21 33 30.17 1022 10 16 0.00 0.00
1:54 pm 13:54 Cloudy 73 23 66 19 78 78 SE 14 22 30.14 1021 10 16 0.00 0.00
2:52 pm 14:52 Cloudy with Showers 72 22 66 19 83 83 SSE 17 28 30.14 1021 7 11 0.00 0.00
3:04 pm 15:04 Cloudy with Light Rain 72 22 66 19 83 83 SSE 15 24 30.14 1021 6 10 0.00 0.00
4:52 pm 16:52 Cloudy 70 21 66 19 88 88 SSE 8 13 30.14 1021 10 16 0.00 0.00
5:54 pm 17:54 Mostly Cloudy 66 19 64 18 94 94 SE 7 11 30.15 1021 10 16 0.00 0.00
6:54 pm 18:54 Mostly Cloudy 66 19 64 18 94 94 SSE 6 9 30.17 1022 10 16 0.00 0.00
7:53 pm 19:53 Cloudy 66 19 66 19 100 100 SSE 5 7 30.18 1022 10 16 0.00 0.00
8:55 pm 20:55 Cloudy 68 20 66 19 94 94 S 8 13 30.20 1023 10 16 0.00 0.00
9:55 pm 21:55 Cloudy with Mist and Fog 66 19 66 19 100 100 SSE 8 13 30.20 1023 5 8 0.00 0.00
10:15 pm 22:15 Cloudy with Mist and Fog 68 19.8 66 19 95 95 SSW 7 11 30.21 1023 5 8 0.00 0.00
10:35 pm 22:35 Cloudy with Mist and Fog 68 19.9 66 19.1 95 95 S 7 11 30.21 1023 5 8 0.00 0.00
10:55 pm 22:55 Cloudy with Mist and Fog 68 19.9 66 19.1 95 95 S 6 9 30.22 1023 4 6 0.00 0.00
11:15 pm 23:15 Cloudy with Mist and Fog 68 19.9 66 19.1 95 95 SSE 9 15 30.21 1023 3 4 0.00 0.00
11:35 pm 23:35 Cloudy with Mist and Fog 68 20 67 19.2 95 95 S 8 13 30.20 1023 1 1 0.00 0.00
11:55 pm 23:55 Cloudy with Fog 69 20.5 68 19.8 96 96 S 9 15 30.20 1023 1 1 0.00 0.00

Powered by AerisWeather